| time (UTC) | temp C | wind direction | speed KPH | gust KPH | rain 1hr cm | rain 24hr cm | rain mn cm | humidity % | barometer mb |
| 20260503222428 | 15 | 90 | 0.0 | 3.2 | 0.00 | 0.00 | 0.00 | 32 | 1034.2 |
| 20260503221428 | 15 | 180 | 0.0 | 0.0 | 0.00 | 0.00 | 0.00 | 31 | 1034.2 |
| 20260503220428 | 15 | 135 | 0.0 | 1.6 | 0.00 | 0.00 | 0.00 | 31 | 1034.2 |
| 20260503215527 | 15 | 202 | 0.0 | 1.6 | 0.00 | 0.00 | 0.00 | 31 | 1034.3 |
| 20260503215443 | 15 | 190 | 1.6 | 6.4 | 0.00 | 0.00 | 0.00 | 31 | 1034.3 |
| 20260503213429 | 15 | 98 | 0.0 | 1.6 | 0.00 | 0.00 | 0.00 | 30 | 1034.2 |
| 20260503212429 | 15 | 157 | 0.0 | 4.8 | 0.00 | 0.00 | 0.00 | 30 | 1034.2 |
| 20260503211429 | 15 | 349 | 0.0 | 1.6 | 0.00 | 0.00 | 0.00 | 29 | 1034.2 |
| 20260503205528 | 16 | 78 | 0.0 | 0.0 | 0.00 | 0.00 | 0.00 | 29 | 1034.3 |
| 20260503204528 | 16 | 197 | 1.6 | 11.3 | 0.00 | 0.00 | 0.00 | 28 | 1034.3 |
| 20260503203628 | 16 | 150 | 1.6 | 3.2 | 0.00 | 0.00 | 0.00 | 26 | 1034.5 |
| 20260503201727 | 16 | 215 | 0.0 | 0.0 | 0.00 | 0.00 | 0.00 | 28 | 1034.4 |
| 20260503200731 | 16 | 135 | 1.6 | 6.4 | 0.00 | 0.00 | 0.00 | 28 | 1034.6 |
| 20260503195827 | 17 | 178 | 0.0 | 6.4 | 0.00 | 0.00 | 0.00 | 27 | 1034.5 |
| 20260503192830 | 17 | 123 | 1.6 | 6.4 | 0.00 | 0.00 | 0.00 | 26 | 1034.8 |
| 20260503191830 | 16 | 93 | 1.6 | 8.0 | 0.00 | 0.00 | 0.00 | 28 | 1035.0 |
| 20260503190828 | 16 | 146 | 0.0 | 3.2 | 0.00 | 0.00 | 0.00 | 29 | 1035.0 |
| 20260503185828 | 15 | 144 | 3.2 | 12.9 | 0.00 | 0.00 | 0.00 | 29 | 1035.1 |
| 20260503183929 | 16 | 265 | 0.0 | 0.0 | 0.00 | 0.00 | 0.00 | 28 | 1035.1 |
| 20260503182928 | 16 | 150 | 1.6 | 8.0 | 0.00 | 0.00 | 0.00 | 27 | 1035.4 |
| 20260503182828 | 16 | 135 | 0.0 | 3.2 | 0.00 | 0.00 | 0.00 | 28 | 1035.3 |
| 20260503180829 | 16 | 127 | 0.0 | 3.2 | 0.00 | 0.00 | 0.00 | 29 | 1035.3 |
| 20260503180727 | 16 | 168 | 0.0 | 4.8 | 0.00 | 0.00 | 0.00 | 29 | 1035.4 |
| 20260503175730 | 15 | 31 | 0.0 | 6.4 | 0.00 | 0.00 | 0.00 | 30 | 1035.3 |
| 20260503174827 | 15 | 109 | 1.6 | 6.4 | 0.00 | 0.00 | 0.00 | 31 | 1035.7 |
| 20260503174727 | 15 | 170 | 1.6 | 4.8 | 0.00 | 0.00 | 0.00 | 31 | 1035.7 |
| 20260503173730 | 15 | 360 | 0.0 | 1.6 | 0.00 | 0.00 | 0.00 | 29 | 1035.7 |
| 20260503172828 | 15 | 164 | 0.0 | 1.6 | 0.00 | 0.00 | 0.00 | 30 | 1035.9 |
| 20260503172727 | 15 | 180 | 0.0 | 3.2 | 0.00 | 0.00 | 0.00 | 30 | 1035.8 |
| 20260503171729 | 15 | 207 | 1.6 | 6.4 | 0.00 | 0.00 | 0.00 | 31 | 1035.8 |
| 20260503170730 | 14 | 90 | 1.6 | 3.2 | 0.00 | 0.00 | 0.00 | 33 | 1035.9 |
| 20260503150529 | 11 | 135 | 0.0 | 1.6 | 0.00 | 0.00 | 0.00 | 39 | 1036.4 |
| 20260503130527 | 9 | 90 | 0.0 | 0.0 | 0.00 | 0.00 | 0.00 | 51 | 1036.1 |
| 20260503110528 | 6 | 180 | 0.0 | 0.0 | 0.00 | 0.00 | 0.00 | 65 | 1035.2 |
| 20260503081629 | 3 | 157 | 0.0 | 0.0 | 0.00 | 0.00 | 0.00 | 77 | 1032.9 |
| 20260503072627 | 5 | 157 | 0.0 | 0.0 | 0.00 | 0.00 | 0.00 | 74 | 1032.7 |
| 20260503071629 | 5 | 157 | 0.0 | 0.0 | 0.00 | 0.00 | 0.00 | 72 | 1032.8 |
| 20260503070727 | 5 | 157 | 0.0 | 0.0 | 0.00 | 0.00 | 0.00 | 73 | 1032.7 |
| 20260503055028 | 5 | 157 | 0.0 | 0.0 | 0.00 | 0.00 | 0.00 | 69 | 1033.2 |
| 20260503054927 | 5 | 157 | 0.0 | 0.0 | 0.00 | 0.00 | 0.00 | 68 | 1033.1 |
| 20260503053929 | 5 | 157 | 0.0 | 0.0 | 0.00 | 0.00 | 0.00 | 67 | 1033.2 |
| 20260503052828 | 6 | 157 | 0.0 | 0.0 | 0.00 | 0.00 | 0.00 | 67 | 1033.4 |
| 20260503051927 | 6 | 157 | 0.0 | 0.0 | 0.00 | 0.00 | 0.00 | 65 | 1033.5 |
| 20260503050929 | 6 | 157 | 0.0 | 0.0 | 0.00 | 0.00 | 0.00 | 65 | 1033.6 |
| 20260503045030 | 6 | 157 | 0.0 | 0.0 | 0.00 | 0.00 | 0.00 | 63 | 1033.7 |
| 20260503044127 | 7 | 157 | 0.0 | 0.0 | 0.00 | 0.00 | 0.00 | 60 | 1033.8 |
| 20260503043127 | 7 | 157 | 0.0 | 0.0 | 0.00 | 0.00 | 0.00 | 60 | 1033.8 |
| 20260503042130 | 7 | 157 | 0.0 | 0.0 | 0.00 | 0.00 | 0.00 | 58 | 1034.1 |
| 20260503042029 | 7 | 157 | 0.0 | 0.0 | 0.00 | 0.00 | 0.00 | 59 | 1034.0 |
| 20260503041127 | 7 | 157 | 0.0 | 0.0 | 0.00 | 0.00 | 0.00 | 58 | 1034.2 |
| 20260503040128 | 7 | 157 | 0.0 | 0.0 | 0.00 | 0.00 | 0.00 | 56 | 1034.1 |
| 20260503035211 | 8 | 157 | 0.0 | 0.0 | 0.00 | 0.00 | 0.00 | 55 | 1034.3 |
| 20260503034213 | 8 | 157 | 0.0 | 0.0 | 0.00 | 0.00 | 0.00 | 56 | 1034.2 |
| 20260503033212 | 8 | 157 | 0.0 | 0.0 | 0.00 | 0.00 | 0.00 | 57 | 1034.0 |
| 20260503032214 | 8 | 157 | 0.0 | 0.0 | 0.00 | 0.00 | 0.00 | 57 | 1034.1 |
| 20260503031311 | 8 | 157 | 0.0 | 0.0 | 0.00 | 0.00 | 0.00 | 56 | 1033.9 |
| 20260503030311 | 8 | 157 | 0.0 | 0.0 | 0.00 | 0.00 | 0.00 | 55 | 1034.0 |
| 20260503025314 | 8 | 157 | 0.0 | 0.0 | 0.00 | 0.00 | 0.00 | 53 | 1034.1 |
| 20260503024411 | 8 | 157 | 0.0 | 0.0 | 0.00 | 0.00 | 0.00 | 52 | 1034.1 |
| 20260503023415 | 8 | 157 | 0.0 | 0.0 | 0.00 | 0.00 | 0.00 | 51 | 1034.3 |
| 20260503022512 | 9 | 157 | 0.0 | 0.0 | 0.00 | 0.00 | 0.00 | 50 | 1034.3 |
| 20260503021513 | 9 | 157 | 0.0 | 0.0 | 0.00 | 0.00 | 0.00 | 50 | 1034.3 |
| 20260503020514 | 10 | 157 | 0.0 | 0.0 | 0.00 | 0.00 | 0.00 | 50 | 1034.3 |
| 20260503015612 | 10 | 157 | 0.0 | 0.0 | 0.00 | 0.00 | 0.00 | 49 | 1034.3 |
| 20260503013613 | 10 | 164 | 1.6 | 8.0 | 0.00 | 0.00 | 0.00 | 48 | 1034.1 |
| 20260503012612 | 10 | 180 | 0.0 | 0.0 | 0.00 | 0.00 | 0.00 | 48 | 1034.2 |
| 20260503011614 | 10 | 180 | 0.0 | 0.0 | 0.00 | 0.00 | 0.00 | 48 | 1034.0 |
| 20260503005613 | 10 | 180 | 0.0 | 0.0 | 0.00 | 0.00 | 0.00 | 47 | 1033.8 |
| 20260503003711 | 10 | 180 | 0.0 | 0.0 | 0.00 | 0.00 | 0.00 | 46 | 1033.6 |
| 20260503003611 | 10 | 180 | 0.0 | 0.0 | 0.00 | 0.00 | 0.00 | 46 | 1033.6 |
| 20260503003511 | 10 | 180 | 0.0 | 0.0 | 0.00 | 0.00 | 0.00 | 47 | 1033.6 |
| 20260503002412 | 11 | 180 | 0.0 | 0.0 | 0.00 | 0.00 | 0.00 | 46 | 1033.6 |
| 20260503001412 | 11 | 180 | 0.0 | 0.0 | 0.00 | 0.00 | 0.00 | 45 | 1033.6 |
| 20260503000412 | 11 | 180 | 0.0 | 0.0 | 0.00 | 0.00 | 0.00 | 44 | 1033.6 |
| 20260502235413 | 11 | 180 | 0.0 | 0.0 | 0.00 | 0.00 | 0.00 | 44 | 1033.4 |
| 20260502235313 | 11 | 180 | 0.0 | 0.0 | 0.00 | 0.00 | 0.00 | 43 | 1033.3 |
| 20260502234312 | 12 | 180 | 0.0 | 0.0 | 0.00 | 0.00 | 0.00 | 42 | 1033.3 |
| 20260502233312 | 12 | 180 | 0.0 | 0.0 | 0.00 | 0.00 | 0.00 | 40 | 1033.2 |
| 20260502232311 | 12 | 180 | 0.0 | 0.0 | 0.00 | 0.00 | 0.00 | 40 | 1033.0 |
| 20260502230313 | 12 | 113 | 0.0 | 3.2 | 0.00 | 0.00 | 0.00 | 40 | 1033.3 |
| 20260502225311 | 13 | 101 | 0.0 | 4.8 | 0.00 | 0.00 | 0.00 | 40 | 1033.3 |
| 20260502224311 | 13 | 315 | 0.0 | 0.0 | 0.00 | 0.00 | 0.00 | 40 | 1033.3 |
| 20260502224215 | 13 | 315 | 0.0 | 0.0 | 0.00 | 0.00 | 0.00 | 39 | 1033.3 |
| 20260502223214 | 13 | 315 | 0.0 | 0.0 | 0.00 | 0.00 | 0.00 | 38 | 1033.2 |
| 20260502223111 | 13 | 221 | 1.6 | 9.7 | 0.00 | 0.00 | 0.00 | 37 | 1033.2 |